| time (UTC) | temp C | wind direction | speed KPH | gust KPH | rain 1hr cm | rain 24hr cm | rain mn cm | humidity % | barometer mb |
| 20260505192427 | 26 | 0 | 6.4 | 16.1 | 0.00 | 0.30 | 0.30 | 100 | 1009.6 |
| 20260505191924 | 26 | 0 | 4.8 | 9.7 | 0.00 | 0.30 | 0.30 | 100 | 1009.6 |
| 20260505191424 | 26 | 0 | 6.4 | 11.3 | 0.00 | 0.30 | 0.30 | 100 | 1009.6 |
| 20260505190920 | 26 | 0 | 3.2 | 9.7 | 0.00 | 0.30 | 0.30 | 100 | 1009.6 |
| 20260505190415 | 26 | 0 | 6.4 | 17.7 | 0.00 | 0.30 | 0.30 | 100 | 1009.6 |
| 20260505185910 | 26 | 0 | 8.0 | 16.1 | 0.00 | 0.30 | 0.30 | 100 | 1009.3 |
| 20260505185408 | 26 | 0 | 6.4 | 20.9 | 0.00 | 0.30 | 0.30 | 100 | 1009.3 |
| 20260505184904 | 26 | 0 | 12.9 | 24.1 | 1.19 | 0.28 | 0.28 | 100 | 1009.3 |
| 20260505184401 | 26 | 0 | 14.5 | 29.0 | 0.00 | 0.28 | 0.28 | 100 | 1009.3 |
| 20260505183858 | 26 | 0 | 19.3 | 32.2 | 0.00 | 0.25 | 0.25 | 100 | 1009.3 |
| 20260505183355 | 26 | 0 | 12.9 | 20.9 | 0.00 | 0.25 | 0.25 | 100 | 1009.0 |
| 20260505182851 | 26 | 0 | 12.9 | 25.7 | 0.00 | 0.25 | 0.25 | 100 | 1009.3 |
| 20260505182348 | 26 | 0 | 9.7 | 16.1 | 0.00 | 0.25 | 0.25 | 100 | 1009.0 |
| 20260505181845 | 26 | 0 | 8.0 | 19.3 | 0.00 | 0.25 | 0.25 | 100 | 1009.0 |
| 20260505181342 | 26 | 0 | 12.9 | 25.7 | 0.00 | 0.25 | 0.25 | 100 | 1009.0 |
| 20260505180838 | 26 | 0 | 9.7 | 17.7 | 0.00 | 0.25 | 0.25 | 100 | 1009.0 |
| 20260505180335 | 26 | 0 | 8.0 | 17.7 | 0.00 | 0.25 | 0.25 | 100 | 1009.0 |
| 20260505175832 | 26 | 0 | 8.0 | 14.5 | 0.00 | 0.25 | 0.25 | 100 | 1009.0 |
| 20260505175328 | 26 | 0 | 8.0 | 17.7 | 0.00 | 0.25 | 0.25 | 100 | 1009.0 |
| 20260505174825 | 26 | 0 | 8.0 | 25.7 | 0.00 | 0.25 | 0.25 | 100 | 1009.0 |
| 20260505174322 | 26 | 0 | 1.6 | 11.3 | 0.00 | 0.25 | 0.25 | 100 | 1009.0 |
| 20260505173818 | 26 | 0 | 11.3 | 25.7 | 0.00 | 0.25 | 0.25 | 100 | 1009.0 |
| 20260505173314 | 26 | 0 | 11.3 | 24.1 | 0.00 | 0.25 | 0.25 | 100 | 1009.0 |
| 20260505172812 | 26 | 0 | 4.8 | 20.9 | 0.00 | 0.25 | 0.25 | 100 | 1009.0 |
| 20260505172310 | 26 | 0 | 9.7 | 19.3 | 0.00 | 0.25 | 0.25 | 100 | 1009.0 |
| 20260505171804 | 26 | 0 | 9.7 | 16.1 | 0.00 | 0.25 | 0.25 | 100 | 1009.0 |
| 20260505171226 | 26 | 0 | 8.0 | 12.9 | 0.00 | 0.25 | 0.25 | 100 | 1009.0 |
| 20260505170723 | 26 | 0 | 8.0 | 12.9 | 0.00 | 0.25 | 0.25 | 100 | 1009.0 |
| 20260505170220 | 26 | 0 | 6.4 | 17.7 | 0.00 | 0.25 | 0.25 | 100 | 1009.0 |
| 20260505165715 | 26 | 0 | 12.9 | 27.4 | 0.00 | 0.25 | 0.25 | 100 | 1009.0 |
| 20260505165212 | 26 | 0 | 12.9 | 24.1 | 0.00 | 0.25 | 0.25 | 100 | 1009.0 |
| 20260505164707 | 26 | 0 | 11.3 | 22.5 | 0.00 | 0.25 | 0.25 | 100 | 1009.0 |
| 20260505164204 | 26 | 0 | 9.7 | 19.3 | 0.00 | 0.25 | 0.25 | 100 | 1009.0 |
| 20260505163702 | 26 | 0 | 14.5 | 25.7 | 0.00 | 0.25 | 0.25 | 100 | 1009.0 |
| 20260505163200 | 26 | 0 | 14.5 | 29.0 | 0.00 | 0.20 | 0.20 | 100 | 1009.0 |
| 20260505162658 | 26 | 0 | 8.0 | 17.7 | 0.00 | 0.20 | 0.20 | 100 | 1009.0 |
| 20260505162155 | 26 | 0 | 4.8 | 14.5 | 0.00 | 0.20 | 0.20 | 100 | 1009.3 |
| 20260505161652 | 26 | 0 | 11.3 | 30.6 | 1.19 | 0.18 | 0.18 | 100 | 1009.3 |
| 20260505161149 | 26 | 0 | 8.0 | 19.3 | 0.00 | 0.18 | 0.18 | 100 | 1009.3 |
| 20260505160647 | 26 | 0 | 8.0 | 16.1 | 1.19 | 0.15 | 0.15 | 100 | 1009.3 |
| 20260505160144 | 26 | 0 | 6.4 | 14.5 | 0.00 | 0.08 | 0.08 | 100 | 1009.0 |
| 20260505153123 | 26 | 0 | 11.3 | 22.5 | 0.00 | 0.08 | 0.08 | 100 | 1009.0 |
| 20260505152620 | 26 | 0 | 11.3 | 19.3 | 0.00 | 0.08 | 0.08 | 100 | 1009.3 |
| 20260505152116 | 26 | 0 | 8.0 | 14.5 | 0.00 | 0.08 | 0.08 | 100 | 1009.3 |
| 20260505151611 | 26 | 0 | 9.7 | 20.9 | 0.00 | 0.08 | 0.08 | 100 | 1009.3 |
| 20260505151109 | 26 | 0 | 12.9 | 24.1 | 0.00 | 0.08 | 0.08 | 100 | 1009.3 |
| 20260505150605 | 26 | 0 | 12.9 | 24.1 | 0.00 | 0.08 | 0.08 | 100 | 1009.3 |
| 20260505140530 | 26 | 0 | 16.1 | 35.4 | 1.19 | 0.03 | 0.03 | 100 | 1010.7 |
| 20260505124943 | 26 | 0 | 9.7 | 16.1 | 0.00 | 4.29 | 4.29 | 100 | 1011.7 |
| 20260505124440 | 26 | 0 | 11.3 | 20.9 | 0.00 | 4.29 | 4.29 | 100 | 1011.7 |
| 20260505123937 | 26 | 0 | 11.3 | 29.0 | 0.00 | 4.29 | 4.29 | 100 | 1011.7 |
| 20260505123433 | 26 | 0 | 12.9 | 25.7 | 0.00 | 4.29 | 4.29 | 100 | 1011.7 |
| 20260505122929 | 26 | 0 | 4.8 | 12.9 | 0.00 | 4.27 | 4.27 | 100 | 1011.7 |
| 20260505122427 | 26 | 0 | 4.8 | 11.3 | 0.00 | 4.27 | 4.27 | 100 | 1011.7 |
| 20260505121923 | 26 | 0 | 6.4 | 16.1 | 0.00 | 4.27 | 4.27 | 100 | 1011.7 |
| 20260505121421 | 26 | 0 | 9.7 | 19.3 | 0.00 | 4.27 | 4.27 | 100 | 1011.3 |
| 20260505120916 | 26 | 0 | 6.4 | 14.5 | 0.00 | 4.27 | 4.27 | 100 | 1011.3 |
| 20260505120413 | 26 | 0 | 6.4 | 17.7 | 0.00 | 4.27 | 4.27 | 100 | 1011.7 |
| 20260505115912 | 26 | 0 | 8.0 | 12.9 | 0.00 | 4.27 | 4.27 | 100 | 1011.7 |
| 20260505115409 | 26 | 0 | 9.7 | 19.3 | 0.00 | 4.27 | 4.27 | 100 | 1011.7 |
| 20260505114907 | 26 | 0 | 8.0 | 16.1 | 0.00 | 4.27 | 4.27 | 100 | 1011.7 |
| 20260505114403 | 26 | 0 | 6.4 | 16.1 | 0.00 | 4.27 | 4.27 | 100 | 1011.7 |
| 20260505113859 | 26 | 0 | 8.0 | 14.5 | 0.00 | 4.27 | 4.27 | 100 | 1011.7 |
| 20260505113356 | 26 | 0 | 12.9 | 20.9 | 0.00 | 4.27 | 4.27 | 100 | 1011.7 |
| 20260505112851 | 26 | 0 | 8.0 | 29.0 | 0.00 | 4.27 | 4.27 | 100 | 1011.7 |
| 20260505112349 | 26 | 0 | 9.7 | 17.7 | 0.00 | 4.27 | 4.27 | 100 | 1011.7 |
| 20260505111845 | 26 | 0 | 11.3 | 24.1 | 0.00 | 4.27 | 4.27 | 100 | 1011.7 |
| 20260505111340 | 26 | 0 | 8.0 | 12.9 | 0.00 | 4.27 | 4.27 | 100 | 1011.3 |
| 20260505110836 | 26 | 0 | 11.3 | 22.5 | 0.00 | 4.27 | 4.27 | 100 | 1011.3 |
| 20260505110334 | 26 | 0 | 8.0 | 14.5 | 0.00 | 4.27 | 4.27 | 100 | 1011.3 |
| 20260505101809 | 26 | 0 | 12.9 | 24.1 | 0.00 | 4.27 | 4.27 | 100 | 1011.3 |
| 20260505101304 | 26 | 0 | 9.7 | 20.9 | 0.00 | 4.27 | 4.27 | 100 | 1011.3 |
| 20260505100800 | 26 | 0 | 9.7 | 22.5 | 0.00 | 4.27 | 4.27 | 100 | 1011.3 |
| 20260505100257 | 26 | 0 | 9.7 | 17.7 | 0.00 | 4.27 | 4.27 | 100 | 1011.3 |
| 20260505095753 | 26 | 0 | 8.0 | 19.3 | 0.00 | 4.27 | 4.27 | 100 | 1011.0 |
| 20260505095251 | 26 | 0 | 9.7 | 19.3 | 0.00 | 4.27 | 4.27 | 100 | 1011.0 |
| 20260505094746 | 26 | 0 | 11.3 | 19.3 | 0.00 | 4.27 | 4.27 | 100 | 1010.7 |
| 20260505094243 | 26 | 0 | 8.0 | 17.7 | 0.00 | 4.27 | 4.27 | 100 | 1010.7 |
| 20260505093739 | 26 | 0 | 6.4 | 14.5 | 0.00 | 4.27 | 4.27 | 100 | 1010.7 |
| 20260505093237 | 26 | 0 | 9.7 | 20.9 | 0.00 | 4.27 | 4.27 | 100 | 1010.7 |
| 20260505092733 | 26 | 0 | 4.8 | 12.9 | 0.00 | 4.27 | 4.27 | 100 | 1010.7 |
| 20260505092232 | 26 | 0 | 6.4 | 11.3 | 0.00 | 4.27 | 4.27 | 100 | 1010.7 |
| 20260505091729 | 26 | 0 | 11.3 | 22.5 | 0.00 | 4.27 | 4.27 | 100 | 1010.3 |
| 20260505091227 | 26 | 0 | 8.0 | 16.1 | 0.00 | 4.27 | 4.27 | 100 | 1010.3 |
| 20260505090725 | 26 | 0 | 6.4 | 16.1 | 0.00 | 4.27 | 4.27 | 100 | 1010.3 |
| 20260505090223 | 26 | 0 | 4.8 | 9.7 | 0.00 | 4.27 | 4.27 | 100 | 1010.3 |
| 20260505085719 | 26 | 0 | 9.7 | 17.7 | 0.00 | 4.27 | 4.27 | 100 | 1010.3 |
| 20260505085218 | 26 | 0 | 6.4 | 11.3 | 0.00 | 4.27 | 4.27 | 100 | 1010.3 |
| 20260505084715 | 26 | 0 | 11.3 | 22.5 | 0.00 | 4.27 | 4.27 | 100 | 1010.0 |
| 20260505084214 | 26 | 0 | 6.4 | 14.5 | 0.00 | 4.27 | 4.27 | 100 | 1010.0 |
| 20260505083710 | 26 | 0 | 9.7 | 17.7 | 0.00 | 4.27 | 4.27 | 100 | 1010.0 |
| 20260505083207 | 26 | 0 | 11.3 | 20.9 | 0.00 | 4.27 | 4.27 | 100 | 1010.0 |
| 20260505082703 | 26 | 0 | 9.7 | 20.9 | 0.00 | 4.27 | 4.27 | 100 | 1009.6 |
| 20260505082200 | 26 | 0 | 11.3 | 24.1 | 0.00 | 4.27 | 4.27 | 100 | 1009.6 |
| 20260505081656 | 26 | 0 | 9.7 | 25.7 | 0.00 | 4.27 | 4.27 | 100 | 1009.6 |
| 20260505081154 | 26 | 0 | 8.0 | 16.1 | 0.00 | 4.27 | 4.27 | 100 | 1009.6 |
| 20260505080650 | 26 | 0 | 6.4 | 14.5 | 0.00 | 4.27 | 4.27 | 100 | 1009.6 |
| 20260505080146 | 26 | 0 | 9.7 | 20.9 | 0.00 | 4.27 | 4.27 | 100 | 1009.6 |
| 20260505075642 | 26 | 0 | 8.0 | 17.7 | 0.00 | 4.27 | 4.27 | 100 | 1009.6 |
| 20260505075139 | 26 | 0 | 9.7 | 20.9 | 0.00 | 4.27 | 4.27 | 100 | 1009.6 |
| 20260505074636 | 26 | 0 | 6.4 | 19.3 | 0.00 | 4.27 | 4.27 | 100 | 1009.6 |
| 20260505074133 | 26 | 0 | 11.3 | 24.1 | 0.00 | 4.27 | 4.27 | 100 | 1009.6 |
| 20260505073631 | 26 | 0 | 9.7 | 19.3 | 0.00 | 4.27 | 4.27 | 100 | 1009.6 |
| 20260505073129 | 26 | 0 | 11.3 | 22.5 | 0.00 | 4.27 | 4.27 | 100 | 1009.6 |
| 20260505072624 | 26 | 0 | 12.9 | 25.7 | 0.00 | 4.27 | 4.27 | 100 | 1009.6 |
| 20260505072121 | 26 | 0 | 4.8 | 17.7 | 0.00 | 4.27 | 4.27 | 100 | 1009.6 |
| 20260505071617 | 26 | 0 | 8.0 | 16.1 | 0.00 | 4.27 | 4.27 | 100 | 1009.6 |
| 20260505071115 | 26 | 0 | 9.7 | 19.3 | 0.00 | 4.27 | 4.27 | 100 | 1009.6 |
| 20260505070612 | 26 | 0 | 11.3 | 22.5 | 0.00 | 4.27 | 4.27 | 100 | 1009.6 |
| 20260505070108 | 26 | 0 | 6.4 | 17.7 | 0.00 | 4.27 | 4.27 | 100 | 1009.6 |
| 20260505065604 | 26 | 0 | 9.7 | 20.9 | 0.00 | 4.27 | 4.27 | 100 | 1009.6 |
| 20260505065101 | 26 | 0 | 11.3 | 24.1 | 0.00 | 4.27 | 4.27 | 100 | 1009.3 |
| 20260505064557 | 26 | 0 | 11.3 | 35.4 | 0.00 | 4.27 | 4.27 | 100 | 1009.3 |
| 20260505064056 | 26 | 0 | 6.4 | 19.3 | 0.00 | 4.27 | 4.27 | 100 | 1009.3 |
| 20260505063553 | 26 | 0 | 14.5 | 27.4 | 0.00 | 4.27 | 4.27 | 100 | 1009.3 |
| 20260505063049 | 26 | 0 | 11.3 | 19.3 | 0.00 | 4.27 | 4.27 | 100 | 1009.3 |
| 20260505062545 | 26 | 0 | 11.3 | 29.0 | 0.00 | 4.27 | 4.27 | 100 | 1009.3 |
| 20260505062043 | 26 | 0 | 12.9 | 25.7 | 0.00 | 4.27 | 4.27 | 100 | 1009.3 |
| 20260505061540 | 26 | 0 | 9.7 | 20.9 | 0.00 | 4.27 | 4.27 | 100 | 1009.3 |
| 20260505061038 | 26 | 0 | 11.3 | 20.9 | 0.00 | 4.27 | 4.27 | 100 | 1009.3 |
| 20260505060535 | 26 | 0 | 9.7 | 20.9 | 0.00 | 4.27 | 4.27 | 100 | 1009.3 |
| 20260505060031 | 26 | 0 | 9.7 | 16.1 | 0.00 | 4.27 | 4.27 | 100 | 1009.3 |
| 20260505055527 | 26 | 0 | 11.3 | 22.5 | 0.00 | 4.27 | 4.27 | 100 | 1009.3 |
| 20260505055024 | 26 | 0 | 11.3 | 24.1 | 0.00 | 4.27 | 4.27 | 100 | 1009.3 |
| 20260505054521 | 26 | 0 | 9.7 | 24.1 | 0.00 | 4.27 | 4.27 | 100 | 1009.3 |
| 20260505054019 | 26 | 0 | 9.7 | 22.5 | 0.00 | 4.27 | 4.27 | 100 | 1009.0 |
| 20260505053516 | 26 | 0 | 11.3 | 24.1 | 0.00 | 4.27 | 4.27 | 100 | 1009.0 |
| 20260505053013 | 26 | 0 | 12.9 | 29.0 | 0.00 | 4.27 | 4.27 | 100 | 1009.0 |
| 20260505052510 | 26 | 0 | 12.9 | 33.8 | 0.00 | 4.27 | 4.27 | 100 | 1009.0 |
| 20260505052007 | 26 | 0 | 6.4 | 22.5 | 0.00 | 4.27 | 4.27 | 100 | 1009.0 |
| 20260505051504 | 26 | 0 | 8.0 | 24.1 | 0.00 | 4.27 | 4.27 | 100 | 1009.0 |
| 20260505051003 | 26 | 0 | 9.7 | 22.5 | 0.00 | 4.27 | 4.27 | 100 | 1008.6 |
| 20260505050500 | 26 | 0 | 9.7 | 22.5 | 0.00 | 4.27 | 4.27 | 100 | 1008.6 |
| 20260505041428 | 26 | 0 | 11.3 | 25.7 | 0.00 | 4.27 | 4.27 | 100 | 1009.3 |
| 20260505040925 | 26 | 0 | 9.7 | 20.9 | 0.00 | 4.27 | 4.27 | 100 | 1009.3 |
| 20260505040422 | 26 | 0 | 14.5 | 20.9 | 0.00 | 4.27 | 4.27 | 100 | 1009.3 |
| 20260505035919 | 26 | 0 | 12.9 | 25.7 | 0.00 | 4.27 | 4.27 | 100 | 1009.3 |
| 20260505035415 | 26 | 0 | 9.7 | 19.3 | 0.00 | 4.27 | 4.27 | 100 | 1009.3 |
| 20260505034912 | 26 | 0 | 12.9 | 22.5 | 0.00 | 4.27 | 4.27 | 100 | 1009.6 |
| 20260505034409 | 26 | 0 | 11.3 | 25.7 | 0.00 | 4.27 | 4.27 | 100 | 1009.6 |
| 20260505033906 | 26 | 0 | 8.0 | 22.5 | 0.00 | 4.27 | 4.27 | 100 | 1009.6 |
| 20260505033402 | 26 | 0 | 9.7 | 20.9 | 0.00 | 4.27 | 4.27 | 100 | 1009.6 |
| 20260505032901 | 26 | 0 | 11.3 | 20.9 | 0.00 | 4.27 | 4.27 | 100 | 1009.6 |
| 20260505032357 | 26 | 0 | 11.3 | 20.9 | 0.00 | 4.27 | 4.27 | 100 | 1009.6 |
| 20260505031854 | 26 | 0 | 9.7 | 22.5 | 0.00 | 4.27 | 4.27 | 100 | 1009.6 |
| 20260505031351 | 26 | 0 | 6.4 | 11.3 | 0.00 | 4.27 | 4.27 | 100 | 1010.0 |
| 20260505030848 | 26 | 0 | 11.3 | 22.5 | 0.00 | 4.27 | 4.27 | 100 | 1010.0 |
| 20260505030344 | 26 | 0 | 9.7 | 20.9 | 0.00 | 4.27 | 4.27 | 100 | 1010.0 |
| 20260505025839 | 26 | 0 | 11.3 | 19.3 | 0.00 | 4.27 | 4.27 | 100 | 1010.0 |
| 20260505025337 | 26 | 0 | 12.9 | 20.9 | 0.00 | 4.27 | 4.27 | 100 | 1010.0 |
| 20260505024835 | 26 | 0 | 9.7 | 16.1 | 0.00 | 4.27 | 4.27 | 100 | 1010.0 |
| 20260505024333 | 26 | 0 | 8.0 | 12.9 | 0.00 | 4.27 | 4.27 | 100 | 1010.0 |
| 20260505023830 | 26 | 0 | 9.7 | 17.7 | 0.00 | 4.27 | 4.27 | 100 | 1010.0 |
| 20260505023327 | 26 | 0 | 8.0 | 12.9 | 0.00 | 4.27 | 4.27 | 100 | 1010.0 |
| 20260505022824 | 26 | 0 | 8.0 | 17.7 | 0.00 | 4.27 | 4.27 | 100 | 1010.0 |
| 20260505022321 | 26 | 0 | 9.7 | 19.3 | 0.00 | 4.27 | 4.27 | 100 | 1010.0 |
| 20260505021818 | 26 | 0 | 8.0 | 16.1 | 0.00 | 4.27 | 4.27 | 100 | 1010.0 |
| 20260505021315 | 26 | 0 | 6.4 | 14.5 | 0.00 | 4.27 | 4.27 | 100 | 1010.0 |
| 20260505020810 | 26 | 0 | 12.9 | 25.7 | 0.00 | 4.27 | 4.27 | 100 | 1010.0 |
| 20260505020307 | 26 | 0 | 9.7 | 16.1 | 0.00 | 4.27 | 4.27 | 100 | 1010.3 |
| 20260505015803 | 26 | 0 | 11.3 | 17.7 | 0.00 | 4.27 | 4.27 | 100 | 1010.3 |
| 20260505015300 | 26 | 0 | 6.4 | 11.3 | 0.00 | 4.27 | 4.27 | 100 | 1010.3 |
| 20260505014758 | 26 | 0 | 6.4 | 17.7 | 0.00 | 4.27 | 4.27 | 100 | 1010.3 |
| 20260505014255 | 26 | 0 | 3.2 | 8.0 | 0.00 | 4.27 | 4.27 | 100 | 1010.3 |
| 20260505013751 | 26 | 0 | 4.8 | 12.9 | 0.00 | 4.27 | 4.27 | 100 | 1010.3 |
| 20260505013248 | 26 | 0 | 4.8 | 8.0 | 0.00 | 4.27 | 4.27 | 100 | 1010.3 |
| 20260505012747 | 26 | 0 | 6.4 | 11.3 | 0.00 | 4.27 | 4.27 | 100 | 1010.3 |
| 20260505012244 | 26 | 0 | 4.8 | 9.7 | 0.00 | 4.27 | 4.27 | 100 | 1010.3 |
| 20260505011739 | 26 | 0 | 9.7 | 17.7 | 0.00 | 4.27 | 4.27 | 100 | 1010.3 |
| 20260505011237 | 26 | 0 | 6.4 | 16.1 | 0.00 | 4.27 | 4.27 | 100 | 1010.3 |
| 20260505010732 | 26 | 0 | 6.4 | 12.9 | 0.00 | 4.27 | 4.27 | 100 | 1010.3 |
| 20260505010229 | 26 | 0 | 9.7 | 17.7 | 0.00 | 4.27 | 4.27 | 100 | 1010.7 |
| 20260505005725 | 26 | 0 | 4.8 | 11.3 | 0.00 | 4.27 | 4.27 | 100 | 1010.7 |
| 20260505005222 | 26 | 0 | 6.4 | 14.5 | 0.00 | 4.27 | 4.27 | 100 | 1010.7 |
| 20260505004719 | 26 | 0 | 11.3 | 20.9 | 0.00 | 4.27 | 4.27 | 100 | 1010.7 |
| 20260505004216 | 26 | 0 | 6.4 | 14.5 | 0.00 | 4.27 | 4.27 | 100 | 1010.7 |
| 20260505003713 | 26 | 0 | 4.8 | 11.3 | 0.00 | 4.27 | 4.27 | 100 | 1010.7 |
| 20260505003211 | 26 | 0 | 9.7 | 19.3 | 0.00 | 4.27 | 4.27 | 100 | 1010.7 |
| 20260505002707 | 26 | 0 | 9.7 | 17.7 | 0.00 | 4.27 | 4.27 | 100 | 1010.7 |
| 20260505002205 | 26 | 0 | 11.3 | 19.3 | 0.00 | 4.27 | 4.27 | 100 | 1010.7 |
| 20260505001702 | 26 | 0 | 9.7 | 19.3 | 0.00 | 4.27 | 4.27 | 100 | 1010.7 |
| 20260505001159 | 26 | 0 | 11.3 | 20.9 | 0.00 | 4.27 | 4.27 | 100 | 1011.0 |
| 20260505000656 | 26 | 0 | 9.7 | 16.1 | 0.00 | 4.27 | 4.27 | 100 | 1011.0 |
| 20260505000154 | 26 | 0 | 9.7 | 20.9 | 0.00 | 4.27 | 4.27 | 100 | 1011.0 |
| 20260504235650 | 26 | 0 | 9.7 | 19.3 | 0.00 | 4.27 | 4.27 | 100 | 1011.0 |
| 20260504235146 | 26 | 0 | 9.7 | 19.3 | 0.00 | 4.27 | 4.27 | 100 | 1011.0 |
| 20260504234644 | 26 | 0 | 9.7 | 19.3 | 0.00 | 4.27 | 4.27 | 100 | 1011.3 |
| 20260504234141 | 26 | 0 | 14.5 | 25.7 | 0.00 | 4.27 | 4.27 | 100 | 1011.3 |
| 20260504233637 | 26 | 0 | 11.3 | 24.1 | 0.00 | 4.27 | 4.27 | 100 | 1011.3 |
| 20260504233133 | 26 | 0 | 12.9 | 22.5 | 0.00 | 4.27 | 4.27 | 100 | 1011.3 |
| 20260504232631 | 26 | 0 | 12.9 | 25.7 | 0.00 | 4.27 | 4.27 | 100 | 1011.3 |
| 20260504232127 | 26 | 0 | 8.0 | 14.5 | 0.00 | 4.27 | 4.27 | 100 | 1011.3 |
| 20260504231624 | 26 | 0 | 14.5 | 24.1 | 0.00 | 4.27 | 4.27 | 100 | 1011.3 |
| 20260504231120 | 26 | 0 | 9.7 | 20.9 | 0.00 | 4.27 | 4.27 | 100 | 1011.7 |
| 20260504230616 | 26 | 0 | 9.7 | 20.9 | 0.00 | 4.27 | 4.27 | 100 | 1011.7 |
| 20260504230116 | 26 | 0 | 9.7 | 20.9 | 0.00 | 4.27 | 4.27 | 100 | 1011.3 |
| 20260504225613 | 26 | 0 | 9.7 | 20.9 | 0.00 | 4.27 | 4.27 | 100 | 1011.3 |
| 20260504225109 | 26 | 0 | 12.9 | 22.5 | 0.00 | 4.27 | 4.27 | 100 | 1011.3 |
| 20260504224606 | 26 | 0 | 12.9 | 24.1 | 0.00 | 4.27 | 4.27 | 100 | 1011.3 |
| 20260504224103 | 26 | 0 | 14.5 | 29.0 | 0.00 | 4.27 | 4.27 | 100 | 1011.3 |
| 20260504223600 | 26 | 0 | 14.5 | 22.5 | 0.00 | 4.27 | 4.27 | 100 | 1011.3 |
| 20260504223055 | 26 | 0 | 12.9 | 24.1 | 0.00 | 4.27 | 4.27 | 100 | 1011.3 |
| 20260504222553 | 26 | 0 | 16.1 | 27.4 | 0.00 | 4.27 | 4.27 | 100 | 1011.3 |
| 20260504222050 | 26 | 0 | 12.9 | 30.6 | 0.00 | 4.27 | 4.27 | 100 | 1011.3 |
| 20260504221547 | 26 | 0 | 12.9 | 25.7 | 0.00 | 4.27 | 4.27 | 100 | 1011.3 |
| 20260504221044 | 26 | 0 | 11.3 | 20.9 | 0.00 | 4.27 | 4.27 | 100 | 1011.3 |
| 20260504220540 | 26 | 0 | 12.9 | 27.4 | 0.00 | 4.27 | 4.27 | 100 | 1011.3 |
| 20260504220038 | 26 | 0 | 11.3 | 20.9 | 0.00 | 4.27 | 4.27 | 100 | 1011.3 |
| 20260504215534 | 26 | 0 | 11.3 | 27.4 | 0.00 | 4.27 | 4.27 | 100 | 1011.3 |
| 20260504215032 | 26 | 0 | 14.5 | 27.4 | 0.00 | 4.27 | 4.27 | 100 | 1011.0 |
| 20260504214527 | 26 | 0 | 11.3 | 25.7 | 0.00 | 4.27 | 4.27 | 100 | 1011.0 |
| 20260504214024 | 26 | 0 | 9.7 | 17.7 | 0.00 | 4.27 | 4.27 | 100 | 1011.0 |
| 20260504213521 | 26 | 0 | 11.3 | 24.1 | 0.00 | 4.27 | 4.27 | 100 | 1010.7 |
| 20260504213018 | 26 | 0 | 14.5 | 32.2 | 0.00 | 4.27 | 4.27 | 100 | 1010.7 |
| 20260504212513 | 26 | 0 | 19.3 | 43.5 | 0.00 | 4.27 | 4.27 | 100 | 1010.3 |
| 20260504212011 | 26 | 0 | 12.9 | 22.5 | 0.00 | 4.27 | 4.27 | 100 | 1010.3 |
| 20260504211508 | 26 | 0 | 16.1 | 33.8 | 0.00 | 4.27 | 4.27 | 100 | 1010.0 |
| 20260504211005 | 26 | 0 | 16.1 | 27.4 | 0.00 | 4.27 | 4.27 | 100 | 1010.0 |
| 20260504210502 | 26 | 0 | 17.7 | 38.6 | 0.00 | 4.27 | 4.27 | 100 | 1010.0 |
| 20260504205958 | 26 | 0 | 14.5 | 25.7 | 0.00 | 4.27 | 4.27 | 100 | 1010.0 |
| 20260504205456 | 26 | 0 | 14.5 | 30.6 | 0.00 | 4.27 | 4.27 | 100 | 1010.0 |
| 20260504204954 | 26 | 0 | 16.1 | 33.8 | 0.00 | 4.27 | 4.27 | 100 | 1010.0 |
| 20260504204452 | 26 | 0 | 14.5 | 27.4 | 0.00 | 4.27 | 4.27 | 100 | 1010.0 |
| 20260504203951 | 26 | 0 | 14.5 | 29.0 | 0.00 | 4.27 | 4.27 | 100 | 1010.0 |
| 20260504203448 | 26 | 0 | 12.9 | 22.5 | 0.00 | 4.27 | 4.27 | 100 | 1010.0 |
| 20260504202944 | 26 | 0 | 14.5 | 24.1 | 0.00 | 4.27 | 4.27 | 100 | 1010.0 |
| 20260504202441 | 26 | 0 | 12.9 | 29.0 | 0.00 | 4.27 | 4.27 | 100 | 1010.0 |
| 20260504201938 | 26 | 0 | 14.5 | 24.1 | 0.00 | 4.27 | 4.27 | 100 | 1010.0 |
| 20260504201435 | 26 | 0 | 16.1 | 29.0 | 0.00 | 4.27 | 4.27 | 100 | 1010.0 |
| 20260504200933 | 26 | 0 | 16.1 | 29.0 | 0.00 | 4.27 | 4.27 | 100 | 1010.0 |
| 20260504200429 | 26 | 0 | 16.1 | 30.6 | 0.00 | 4.27 | 4.27 | 100 | 1010.0 |
| 20260504195926 | 26 | 0 | 19.3 | 35.4 | 0.00 | 4.27 | 4.27 | 100 | 1009.6 |
| 20260504195422 | 26 | 0 | 17.7 | 33.8 | 0.00 | 4.27 | 4.27 | 100 | 1009.6 |
| 20260504194918 | 26 | 0 | 19.3 | 37.0 | 0.00 | 4.24 | 4.24 | 100 | 1009.6 |
| 20260504194414 | 26 | 0 | 14.5 | 27.4 | 0.00 | 4.24 | 4.24 | 100 | 1009.6 |
| 20260504193910 | 26 | 0 | 12.9 | 27.4 | 0.00 | 4.24 | 4.24 | 100 | 1010.0 |
| 20260504193408 | 26 | 0 | 14.5 | 27.4 | 0.00 | 4.24 | 4.24 | 100 | 1010.0 |
| 20260504192907 | 26 | 0 | 11.3 | 30.6 | 0.00 | 4.24 | 4.24 | 100 | 1010.0 |